ON7DE Weather Reports


time (UTC)temp
C
wind
direction
speed
KPH
gust
KPH
rain 1hr
cm
rain 24hr
cm
rain mn
cm
humidity
%
barometer
mb
20260506203818 11 57 3.2 4.8 0.00 0.03 0.03 74 1012.0
20260506202706 11 62 4.8 6.4 0.00 0.03 0.03 74 1011.9
20260506201805 11 69 3.2 6.4 0.00 0.03 0.03 75 1011.8
20260506200905 11 54 6.4 8.0 0.00 0.03 0.03 74 1011.8
20260506200008 11 72 6.4 6.4 0.00 0.03 0.03 73 1011.8
20260506195404 11 72 6.4 11.3 0.00 0.03 0.03 73 1011.5
20260506194505 11 59 9.7 16.1 0.00 0.03 0.03 72 1011.7
20260506193603 11 63 9.7 16.1 0.00 0.03 0.03 72 1011.8
20260506192705 11 61 9.7 16.1 0.00 0.03 0.03 73 1011.6
20260506191805 11 69 9.7 16.1 0.00 0.03 0.03 73 1011.2
20260506190906 11 48 9.7 11.3 0.00 0.03 0.03 74 1011.3
20260506190005 11 51 8.0 8.0 0.00 0.03 0.03 74 1011.1
20260506185405 11 50 8.0 9.7 0.00 0.03 0.03 74 1010.9
20260506184722 11 46 8.0 12.9 0.00 0.03 0.03 75 1010.8
20260506183604 11 50 11.3 11.3 0.00 0.03 0.03 74 1010.7
20260506182705 11 50 9.7 11.3 0.00 0.03 0.03 74 1010.9
20260506181808 11 49 9.7 11.3 0.00 0.03 0.03 73 1010.6
20260506180903 12 57 9.7 11.3 0.00 0.03 0.03 71 1010.4
20260506180005 12 76 11.3 11.3 0.00 0.03 0.03 69 1010.3
20260506175405 12 64 9.7 11.3 0.00 0.03 0.03 66 1010.2
20260506174505 12 63 8.0 11.3 0.00 0.03 0.03 62 1010.1
20260506173603 13 51 8.0 11.3 0.00 0.03 0.03 62 1010.2
20260506172703 13 42 6.4 8.0 0.00 0.03 0.03 64 1009.8
20260506171803 13 56 8.0 11.3 0.00 0.03 0.03 66 1009.8
20260506170905 13 35 8.0 11.3 0.00 0.03 0.03 65 1009.5
20260506170010 13 63 8.0 11.3 0.00 0.03 0.03 64 1009.8
20260506165616 13 53 8.0 9.7 0.00 0.03 0.03 64 1009.6
20260506164718 13 43 9.7 12.9 0.00 0.03 0.03 66 1009.3
20260506163604 14 42 9.7 11.3 0.00 0.03 0.03 63 1009.3
20260506162705 15 36 8.0 11.3 0.00 0.03 0.03 62 1009.3
20260506161804 15 19 6.4 9.7 0.00 0.03 0.03 63 1009.1
20260506160903 14 25 8.0 11.3 0.00 0.03 0.03 63 1009.1
20260506160214 15 42 6.4 11.3 0.00 0.03 0.03 62 1009.2
20260506155616 14 40 8.0 9.7 0.00 0.03 0.03 61 1009.0
20260506154503 15 26 4.8 8.0 0.00 0.03 0.03 59 1009.4
20260506153603 15 3 4.8 8.0 0.00 0.03 0.03 60 1009.1
20260506152918 15 333 4.8 8.0 0.00 0.03 0.03 60 1009.4
20260506151804 14 28 8.0 9.7 0.00 0.03 0.03 59 1009.0
20260506150903 15 47 4.8 9.7 0.00 0.03 0.03 64 1009.2
20260506150225 15 96 6.4 8.0 0.00 0.03 0.03 67 1009.1
20260506145405 14 46 8.0 8.0 0.00 0.03 0.03 67 1009.3
20260506144505 14 31 8.0 9.7 0.00 0.03 0.03 66 1009.2
20260506143605 14 41 8.0 9.7 0.00 0.03 0.03 65 1009.2
20260506142704 15 24 6.4 8.0 0.00 0.03 0.03 64 1009.2
20260506141805 15 27 6.4 11.3 0.00 0.03 0.03 63 1009.0
20260506140905 15 35 9.7 11.3 0.00 0.03 0.03 60 1009.1
20260506140216 15 27 9.7 11.3 0.00 0.03 0.03 62 1009.2
20260506135404 15 348 8.0 11.3 0.00 0.03 0.03 60 1009.0
20260506134505 15 339 6.4 9.7 0.00 0.03 0.03 62 1009.3
20260506133609 15 39 9.7 12.9 0.00 0.03 0.03 61 1009.0
20260506132705 15 65 9.7 9.7 0.00 0.03 0.03 64 1008.9
20260506131804 15 50 9.7 11.3 0.00 0.03 0.03 66 1009.1
20260506130910 15 45 6.4 8.0 0.00 0.03 0.03 67 1009.0
20260506130216 13 45 8.0 12.9 0.00 0.03 0.03 68 1009.0
20260506125405 13 33 9.7 11.3 0.00 0.03 0.03 69 1009.0
20260506124504 13 49 11.3 16.1 0.00 0.03 0.03 69 1008.9
20260506123605 15 53 8.0 12.9 0.00 0.03 0.03 68 1008.7
20260506122705 15 50 8.0 12.9 0.00 0.03 0.03 67 1008.9
20260506121803 15 50 8.0 11.3 0.00 0.03 0.03 67 1008.7
20260506120903 15 45 11.3 12.9 0.00 0.03 0.03 65 1008.7
20260506120008 15 21 9.7 16.1 0.00 0.03 0.03 69 1008.8
20260506115614 15 19 9.7 16.1 0.00 0.03 0.03 69 1008.8
20260506114505 15 45 9.7 16.1 0.00 0.03 0.03 71 1008.7
20260506113604 14 333 8.0 11.3 0.00 0.03 0.03 76 1008.5
20260506112916 14 14 9.7 11.3 0.00 0.03 0.03 75 1008.6
20260506111805 13 12 8.0 8.0 0.00 0.03 0.03 77 1008.8
20260506111115 13 6 8.0 8.0 0.00 0.03 0.03 78 1008.8
20260506110004 13 27 6.4 9.7 0.00 0.03 0.03 78 1008.8
20260506105405 13 358 6.4 8.0 0.00 0.03 0.03 78 1008.7
20260506104503 14 50 4.8 8.0 0.00 0.03 0.03 78 1009.0
20260506103610 14 325 4.8 6.4 0.00 0.03 0.03 79 1008.9
20260506102703 13 30 6.4 9.7 0.00 0.03 0.03 82 1008.7
20260506101803 13 30 8.0 11.3 0.00 0.03 0.03 81 1008.9
20260506100905 13 22 6.4 8.0 0.00 0.03 0.03 83 1008.7
20260506100218 13 29 4.8 6.4 0.00 0.03 0.03 84 1008.8
20260506095403 12 315 6.4 8.0 0.00 0.03 0.03 86 1008.9
20260506094508 12 302 4.8 6.4 0.00 0.03 0.03 89 1008.9
20260506093603 11 357 4.8 4.8 0.00 0.03 0.03 92 1008.8
20260506092703 11 256 4.8 4.8 0.00 0.03 0.03 95 1008.9
20260506091805 11 300 4.8 4.8 0.00 0.03 0.03 96 1008.7
20260506090904 10 264 4.8 4.8 0.00 0.03 0.03 97 1008.7
20260506090005 10 297 4.8 8.0 0.00 0.03 0.03 98 1008.6
20260506085404 10 281 4.8 8.0 0.00 0.03 0.03 99 1008.8
20260506084504 10 266 3.2 4.8 0.00 0.03 0.03 99 1008.8
20260506083612 10 332 3.2 4.8 0.00 0.03 0.03 99 1008.6
20260506082705 10 291 1.6 3.2 0.00 0.03 0.03 99 1008.3
20260506081803 9 8 3.2 6.4 0.00 0.03 0.03 99 1008.4
20260506080905 9 352 3.2 8.0 0.00 0.03 0.03 99 1008.6
20260506072705 9 12 4.8 6.4 0.00 0.03 0.03 99 1008.4
20260506072016 9 11 4.8 6.4 0.00 0.03 0.03 99 1008.5
20260506070905 9 50 6.4 8.0 0.00 0.03 0.03 99 1008.3
20260506062016 8 17 4.8 4.8 0.00 0.00 0.00 98 1008.1
20260506061113 8 35 4.8 6.4 0.00 0.00 0.00 97 1008.1
20260506050905 9 43 6.4 11.3 0.00 0.00 0.00 90 1007.7
20260506044504 10 35 3.2 6.4 0.00 0.00 0.00 89 1007.8
20260506043605 10 29 8.0 9.7 0.00 0.00 0.00 89 1007.7
20260506042703 10 37 9.7 16.1 0.00 0.00 0.00 88 1007.6
20260506041803 9 31 6.4 9.7 0.00 0.00 0.00 88 1007.7
20260506040905 9 2 6.4 8.0 0.00 0.00 0.00 88 1007.6
20260506040005 9 19 4.8 8.0 0.00 0.00 0.00 88 1007.9
20260506035403 9 21 4.8 9.7 0.00 0.00 0.00 88 1007.8
20260506034509 9 43 4.8 6.4 0.00 0.00 0.00 88 1007.9
20260506033606 9 41 4.8 6.4 0.00 0.00 0.00 88 1007.8
20260506032917 9 36 4.8 6.4 0.00 0.00 0.00 87 1007.8
20260506031803 9 22 4.8 6.4 0.00 0.00 0.00 87 1007.9
20260506030903 9 23 4.8 6.4 0.00 0.03 0.00 87 1007.9
20260506030005 9 53 4.8 6.4 0.00 0.03 0.00 86 1008.0
20260506025614 9 60 4.8 6.4 0.00 0.03 0.00 86 1007.9
20260506024505 9 36 4.8 4.8 0.00 0.03 0.00 86 1008.0
20260506023604 9 26 4.8 6.4 0.00 0.03 0.00 85 1008.4
20260506022916 9 25 4.8 8.0 0.00 0.03 0.00 85 1008.1
20260506021805 10 27 4.8 6.4 0.00 0.03 0.00 85 1008.2
20260506020903 10 17 6.4 9.7 0.00 0.03 0.00 85 1008.1
20260506020219 10 29 6.4 9.7 0.00 0.03 0.00 84 1008.3
20260506015405 10 29 4.8 6.4 0.00 0.03 0.00 84 1008.2
20260506014722 10 38 6.4 8.0 0.00 0.03 0.00 84 1008.2
20260506013603 10 41 6.4 6.4 0.00 0.03 0.00 85 1008.3
20260506012703 10 61 4.8 6.4 0.00 0.03 0.00 85 1008.4
20260506011803 10 39 4.8 6.4 0.00 0.03 0.00 85 1008.3
20260506010905 10 29 8.0 9.7 0.00 0.03 0.00 84 1008.3
20260506010007 10 29 6.4 9.7 0.00 0.03 0.00 84 1008.4
20260506005405 10 40 6.4 8.0 0.00 0.03 0.00 84 1008.3
20260506004504 10 38 4.8 8.0 0.00 0.03 0.00 83 1008.5
20260506003605 10 32 6.4 11.3 0.00 0.03 0.00 83 1008.6
20260506002705 10 34 8.0 9.7 0.00 0.03 0.00 82 1008.6
20260506001805 10 29 8.0 9.7 0.00 0.03 0.00 82 1008.8
20260506000903 10 77 9.7 9.7 0.00 0.03 0.00 83 1008.7
20260506000215 10 48 8.0 9.7 0.00 0.03 0.00 83 1008.9
20260505235403 10 48 8.0 9.7 0.00 0.03 0.00 83 1008.8
20260505234508 10 43 6.4 9.7 0.00 0.03 0.00 83 1008.7
20260505233816 10 47 6.4 9.7 0.00 0.03 0.00 84 1008.9
20260505232705 10 40 8.0 11.3 0.00 0.03 0.00 83 1008.9
20260505231810 10 47 9.7 11.3 0.00 0.03 0.00 83 1008.7
20260505230905 10 62 8.0 11.3 0.00 0.03 0.00 83 1009.0
20260505230006 10 47 8.0 11.3 0.00 0.03 0.00 84 1008.9
20260505225403 10 47 8.0 9.7 0.00 0.03 0.00 84 1009.0
20260505224504 10 63 8.0 11.3 0.00 0.03 0.00 84 1008.8
20260505223605 10 52 8.0 9.7 0.00 0.03 0.00 84 1009.1
20260505222705 10 61 8.0 9.7 0.00 0.03 0.00 85 1009.0
20260505221805 11 55 8.0 8.0 0.00 0.03 0.00 85 1009.1
20260505220903 11 43 9.7 11.3 0.00 0.03 0.00 85 1009.3
20260505220007 11 51 9.7 11.3 0.00 0.03 0.00 84 1009.2
20260505215403 11 45 9.7 11.3 0.00 0.10 0.03 84 1009.1
20260505214505 11 63 11.3 16.1 0.00 0.30 0.03 84 1009.1
20260505213604 11 58 9.7 16.1 0.00 0.53 0.03 84 1009.3
20260505212705 11 48 8.0 9.7 0.00 0.66 0.03 84 1009.3
20260505211803 11 49 6.4 9.7 0.00 0.76 0.03 84 1009.2
20260505210905 11 50 8.0 16.1 0.00 1.02 0.03 84 1009.3
20260505210005 11 45 9.7 16.1 0.00 1.12 0.03 83 1009.3
20260505205407 11 58 6.4 8.0 0.00 1.22 0.03 84 1009.1
20260505204503 11 64 9.7 12.9 0.00 1.57 0.03 83 1009.3